VOE65ND LEAS-LEVC

Flight info

Callsign VOE65ND
Flight time 1h 6m
Altitude 34000
Route AMAKA M190 BLV M601 PPN/N0434F330 M176 MANDY
Aircraft A319/M-SDE3FGHIRWY/LB1

Departure

Time 2026-05-08 19:40
Airport Asturias Airport (LEAS)

Arrival

Time 2026-05-08 20:47
Airport Valencia Airport (LEVC)
Time Latitude Longitude Altitude Speed Heading
2026-05-08 19:30 43.55996 -6.03183 426 ft 0 kts 269°
2026-05-08 19:33 43.55997 -6.03188 426 ft 2 kts 273°
2026-05-08 19:33 43.56011 -6.03191 418 ft 3 kts 20°
2026-05-08 19:33 43.56040 -6.03187 426 ft 5 kts 311°
2026-05-08 19:33 43.56076 -6.03228 424 ft 9 kts 346°
2026-05-08 19:34 43.56113 -6.03167 425 ft 11 kts 100°
2026-05-08 19:34 43.56094 -6.03053 417 ft 14 kts 107°
2026-05-08 19:34 43.56057 -6.02902 422 ft 20 kts 108°
2026-05-08 19:34 43.56010 -6.02705 424 ft 23 kts 108°
2026-05-08 19:35 43.55957 -6.02477 422 ft 26 kts 107°
2026-05-08 19:35 43.55963 -6.02313 426 ft 1 kts 64°
2026-05-08 19:35 43.55967 -6.02302 417 ft 2 kts 63°
2026-05-08 19:35 43.55971 -6.02292 418 ft 0 kts 62°
2026-05-08 19:38 43.55971 -6.02291 426 ft 1 kts 62°
2026-05-08 19:38 43.55976 -6.02280 425 ft 2 kts 60°
2026-05-08 19:38 43.55985 -6.02260 424 ft 3 kts 57°
2026-05-08 19:38 43.56002 -6.02229 422 ft 5 kts 46°
2026-05-08 19:39 43.56041 -6.02214 422 ft 7 kts 356°
2026-05-08 19:39 43.56074 -6.02278 420 ft 10 kts 285°
2026-05-08 19:39 43.56095 -6.02386 414 ft 13 kts 284°
2026-05-08 19:39 43.56164 -6.02699 427 ft 71 kts 288°
2026-05-08 19:40 43.56406 -6.03657 421 ft 138 kts 289°
2026-05-08 19:40 43.56735 -6.05055 853 ft 153 kts 288°
2026-05-08 19:40 43.57053 -6.06440 1633 ft 151 kts 288°
2026-05-08 19:40 43.57383 -6.07829 2238 ft 158 kts 289°
2026-05-08 19:41 43.57743 -6.09341 2619 ft 179 kts 288°
2026-05-08 19:41 43.58155 -6.11076 2977 ft 201 kts 288°
2026-05-08 19:41 43.58608 -6.12984 3446 ft 217 kts 288°
2026-05-08 19:41 43.59098 -6.15017 4081 ft 227 kts 291°
2026-05-08 19:42 43.60058 -6.16728 4918 ft 231 kts 329°
2026-05-08 19:42 43.61605 -6.17219 5739 ft 233 kts
2026-05-08 19:42 43.63195 -6.16735 6603 ft 235 kts 18°
2026-05-08 19:42 43.64753 -6.15991 7407 ft 239 kts 21°
2026-05-08 19:43 43.66327 -6.15175 8201 ft 244 kts 21°
2026-05-08 19:43 43.67935 -6.14354 9010 ft 249 kts 20°
2026-05-08 19:43 43.69576 -6.13526 9828 ft 253 kts 23°
2026-05-08 19:43 43.70975 -6.12060 10508 ft 257 kts 57°
2026-05-08 19:44 43.71627 -6.09770 11073 ft 265 kts 89°
2026-05-08 19:44 43.71312 -6.07205 11403 ft 282 kts 112°
2026-05-08 19:44 43.70643 -6.04535 11719 ft 306 kts 112°
2026-05-08 19:44 43.69916 -6.01648 12002 ft 330 kts 112°
2026-05-08 19:45 43.69140 -5.98539 12228 ft 354 kts 111°
2026-05-08 19:45 43.68332 -5.95250 12690 ft 367 kts 111°
2026-05-08 19:45 43.67516 -5.91878 13393 ft 373 kts 111°
2026-05-08 19:45 43.66692 -5.88461 14075 ft 377 kts 111°
2026-05-08 19:46 43.65860 -5.85002 14722 ft 382 kts 111°
2026-05-08 19:46 43.65018 -5.81507 15363 ft 386 kts 111°
2026-05-08 19:46 43.63290 -5.74395 16630 ft 395 kts 111°
2026-05-08 19:47 43.62406 -5.70777 17250 ft 400 kts 111°
2026-05-08 19:47 43.61511 -5.67116 17866 ft 405 kts 112°
2026-05-08 19:47 43.60605 -5.63419 18448 ft 409 kts 112°
2026-05-08 19:47 43.59689 -5.59678 18995 ft 413 kts 112°
2026-05-08 19:48 43.58762 -5.55907 19538 ft 417 kts 112°
2026-05-08 19:48 43.57827 -5.52108 20078 ft 420 kts 112°
2026-05-08 19:48 43.56883 -5.48273 20602 ft 424 kts 112°
2026-05-08 19:48 43.55931 -5.44417 21117 ft 427 kts 112°
2026-05-08 19:49 43.54985 -5.40581 21623 ft 430 kts 112°
2026-05-08 19:49 43.54017 -5.36668 22110 ft 433 kts 112°
2026-05-08 19:49 43.53135 -5.32681 22608 ft 439 kts 107°
2026-05-08 19:49 43.52675 -5.28445 23073 ft 446 kts 97°
2026-05-08 19:50 43.52453 -5.24162 23528 ft 449 kts 97°
2026-05-08 19:50 43.52228 -5.19908 23912 ft 452 kts 97°
2026-05-08 19:50 43.51994 -5.15581 24311 ft 455 kts 98°
2026-05-08 19:50 43.51754 -5.11227 24707 ft 457 kts 98°
2026-05-08 19:51 43.51507 -5.06795 25101 ft 460 kts 98°
2026-05-08 19:51 43.51268 -5.02444 25479 ft 462 kts 98°
2026-05-08 19:51 43.51022 -4.97959 25857 ft 465 kts 98°
2026-05-08 19:51 43.50775 -4.93569 26219 ft 468 kts 98°
2026-05-08 19:52 43.50518 -4.89085 26577 ft 470 kts 98°
2026-05-08 19:52 43.50262 -4.84590 26927 ft 473 kts 98°
2026-05-08 19:52 43.50016 -4.80057 27266 ft 476 kts 98°
2026-05-08 19:52 43.49778 -4.75500 27602 ft 479 kts 98°
2026-05-08 19:53 43.49541 -4.70911 27927 ft 481 kts 98°
2026-05-08 19:53 43.49304 -4.66306 28245 ft 484 kts 98°
2026-05-08 19:53 43.49062 -4.61669 28558 ft 487 kts 98°
2026-05-08 19:53 43.48813 -4.57013 28866 ft 489 kts 98°
2026-05-08 19:54 43.48641 -4.53849 29102 ft 490 kts 98°
2026-05-08 19:54 43.48385 -4.49177 29556 ft 489 kts 98°
2026-05-08 19:54 43.48144 -4.44571 30002 ft 489 kts 98°
2026-05-08 19:54 43.47916 -4.39908 30377 ft 488 kts 98°
2026-05-08 19:55 43.47699 -4.35244 30768 ft 488 kts 98°
2026-05-08 19:55 43.47478 -4.30590 31159 ft 486 kts 98°
2026-05-08 19:55 43.47228 -4.25953 31557 ft 485 kts 98°
2026-05-08 19:55 43.46953 -4.21333 31961 ft 484 kts 99°
2026-05-08 19:56 43.46660 -4.16727 32357 ft 483 kts 99°
2026-05-08 19:56 43.46357 -4.12129 32760 ft 481 kts 99°
2026-05-08 19:56 43.46056 -4.07553 33167 ft 480 kts 99°
2026-05-08 19:56 43.45764 -4.02982 33579 ft 479 kts 98°
2026-05-08 19:57 43.45477 -3.98416 33868 ft 478 kts 98°
2026-05-08 19:57 43.45195 -3.93869 33921 ft 477 kts 98°
2026-05-08 19:57 43.44206 -3.84890 33920 ft 473 kts 105°
2026-05-08 19:58 43.42901 -3.76017 33919 ft 473 kts 105°
2026-05-08 19:58 43.41584 -3.67156 33922 ft 473 kts 105°
2026-05-08 19:59 43.40267 -3.58293 33926 ft 473 kts 105°
2026-05-08 19:59 43.38947 -3.49437 33923 ft 473 kts 105°
2026-05-08 20:00 43.37620 -3.40591 33923 ft 472 kts 105°
2026-05-08 20:00 43.36331 -3.32055 33930 ft 472 kts 105°
2026-05-08 20:01 43.35006 -3.23223 33934 ft 472 kts 105°
2026-05-08 20:01 43.33700 -3.14387 33928 ft 472 kts 105°
2026-05-08 20:02 43.32387 -3.05550 33925 ft 472 kts 105°
2026-05-08 20:02 43.31033 -2.96721 33919 ft 471 kts 108°
2026-05-08 20:03 43.28560 -2.88517 33922 ft 462 kts 126°
2026-05-08 20:03 43.25137 -2.81087 33918 ft 461 kts 127°
2026-05-08 20:04 43.21701 -2.73663 33922 ft 461 kts 127°
2026-05-08 20:04 43.18260 -2.66228 33926 ft 462 kts 127°
2026-05-08 20:05 43.14820 -2.58803 33934 ft 462 kts 127°
2026-05-08 20:05 43.11366 -2.51385 33937 ft 462 kts 127°
2026-05-08 20:06 43.07903 -2.43972 33939 ft 462 kts 127°
2026-05-08 20:06 43.04439 -2.36569 33939 ft 462 kts 127°
2026-05-08 20:07 43.00967 -2.29169 33934 ft 462 kts 128°
2026-05-08 20:07 42.97492 -2.21778 33935 ft 463 kts 128°
2026-05-08 20:08 42.94033 -2.14348 33933 ft 464 kts 127°
2026-05-08 20:08 42.90573 -2.06892 33941 ft 465 kts 128°
2026-05-08 20:09 42.87103 -1.99445 33951 ft 466 kts 128°
2026-05-08 20:09 42.83615 -1.92000 33963 ft 466 kts 128°
2026-05-08 20:10 42.80116 -1.84543 33967 ft 468 kts 128°
2026-05-08 20:10 42.76501 -1.77264 33564 ft 463 kts 136°
2026-05-08 20:11 42.74250 -1.74183 33291 ft 455 kts 146°
2026-05-08 20:11 42.71697 -1.71705 33033 ft 447 kts 156°
2026-05-08 20:11 42.66037 -1.68648 32977 ft 433 kts 173°
2026-05-08 20:12 42.60137 -1.67273 32974 ft 430 kts 177°
2026-05-08 20:12 42.54240 -1.65954 32978 ft 429 kts 177°
2026-05-08 20:13 42.48350 -1.64644 32976 ft 429 kts 177°
2026-05-08 20:13 42.42467 -1.63351 32970 ft 428 kts 178°
2026-05-08 20:14 42.36586 -1.62055 32964 ft 428 kts 178°
2026-05-08 20:14 42.30719 -1.60759 32960 ft 427 kts 178°
2026-05-08 20:15 42.24862 -1.59471 32962 ft 426 kts 178°
2026-05-08 20:15 42.19015 -1.58186 32960 ft 425 kts 179°
2026-05-08 20:16 42.13173 -1.56906 32955 ft 425 kts 179°
2026-05-08 20:16 42.07344 -1.55633 32963 ft 424 kts 179°
2026-05-08 20:17 42.01558 -1.54372 32969 ft 424 kts 179°
2026-05-08 20:17 41.95741 -1.53098 32967 ft 423 kts 179°
2026-05-08 20:18 41.89941 -1.51836 32960 ft 422 kts 180°
2026-05-08 20:18 41.84145 -1.50586 32959 ft 422 kts 180°
2026-05-08 20:19 41.78357 -1.49335 32951 ft 421 kts 180°
2026-05-08 20:19 41.72577 -1.48082 32948 ft 420 kts 180°
2026-05-08 20:20 41.66818 -1.46841 32944 ft 419 kts 181°
2026-05-08 20:20 41.61061 -1.45606 32947 ft 419 kts 181°
2026-05-08 20:21 41.55307 -1.44370 32944 ft 419 kts 181°
2026-05-08 20:21 41.49561 -1.43131 32949 ft 418 kts 181°
2026-05-08 20:22 41.43816 -1.41897 32948 ft 418 kts 181°
2026-05-08 20:22 41.39045 -1.40880 32950 ft 417 kts 181°
2026-05-08 20:23 41.32344 -1.39461 32949 ft 417 kts 181°
2026-05-08 20:23 41.26623 -1.38240 32949 ft 417 kts 182°
2026-05-08 20:24 41.20900 -1.37014 32953 ft 416 kts 182°
2026-05-08 20:24 41.15188 -1.35799 32956 ft 415 kts 182°
2026-05-08 20:25 41.09486 -1.34598 32961 ft 415 kts 182°
2026-05-08 20:25 41.03798 -1.33403 32721 ft 411 kts 182°
2026-05-08 20:26 41.01033 -1.32815 32335 ft 407 kts 182°
2026-05-08 20:26 40.98239 -1.32223 31947 ft 408 kts 181°
2026-05-08 20:26 40.95432 -1.31634 31565 ft 407 kts 181°
2026-05-08 20:26 40.92670 -1.31047 31187 ft 398 kts 181°
2026-05-08 20:27 40.89959 -1.30468 30726 ft 392 kts 181°
2026-05-08 20:27 40.87286 -1.29902 30264 ft 387 kts 180°
2026-05-08 20:27 40.84622 -1.29300 29764 ft 398 kts 179°
2026-05-08 20:27 40.81825 -1.28599 29230 ft 417 kts 177°
2026-05-08 20:28 40.78948 -1.27814 28699 ft 426 kts 176°
2026-05-08 20:28 40.76046 -1.26983 28183 ft 427 kts 175°
2026-05-08 20:28 40.73152 -1.26138 27684 ft 424 kts 175°
2026-05-08 20:28 40.70277 -1.25309 27187 ft 421 kts 175°
2026-05-08 20:29 40.67425 -1.24510 26703 ft 417 kts 175°
2026-05-08 20:29 40.64608 -1.23736 26221 ft 409 kts 175°
2026-05-08 20:29 40.61850 -1.22987 25753 ft 401 kts 175°
2026-05-08 20:29 40.59146 -1.22258 25297 ft 393 kts 175°
2026-05-08 20:30 40.56489 -1.21545 24843 ft 386 kts 175°
2026-05-08 20:30 40.53875 -1.20844 24393 ft 380 kts 175°
2026-05-08 20:30 40.51297 -1.20149 23953 ft 376 kts 175°
2026-05-08 20:30 40.48751 -1.19464 23506 ft 372 kts 175°
2026-05-08 20:31 40.46231 -1.18787 22979 ft 369 kts 175°
2026-05-08 20:31 40.43727 -1.18114 22470 ft 366 kts 175°
2026-05-08 20:31 40.41242 -1.17445 21967 ft 364 kts 175°
2026-05-08 20:31 40.38767 -1.16780 21474 ft 361 kts 175°
2026-05-08 20:32 40.36318 -1.16123 20987 ft 359 kts 175°
2026-05-08 20:32 40.33877 -1.15466 20508 ft 356 kts 175°
2026-05-08 20:32 40.31461 -1.14816 20040 ft 353 kts 174°
2026-05-08 20:32 40.29063 -1.14173 19571 ft 350 kts 174°
2026-05-08 20:33 40.26681 -1.13532 19111 ft 347 kts 174°
2026-05-08 20:33 40.24323 -1.12895 18661 ft 345 kts 174°
2026-05-08 20:33 40.21983 -1.12263 18210 ft 342 kts 174°
2026-05-08 20:33 40.19655 -1.11636 17693 ft 341 kts 174°
2026-05-08 20:34 40.17341 -1.11017 17207 ft 339 kts 174°
2026-05-08 20:34 40.15043 -1.10406 16746 ft 336 kts 174°
2026-05-08 20:34 40.10476 -1.09189 15873 ft 333 kts 174°
2026-05-08 20:35 40.08238 -1.08587 15707 ft 323 kts 174°
2026-05-08 20:35 40.06088 -1.08006 15409 ft 310 kts 174°
2026-05-08 20:35 40.03991 -1.07444 14856 ft 306 kts 174°
2026-05-08 20:35 40.01904 -1.06891 14417 ft 306 kts 174°
2026-05-08 20:36 39.99852 -1.06348 14099 ft 304 kts 174°
2026-05-08 20:36 39.97752 -1.05790 13751 ft 303 kts 174°
2026-05-08 20:36 39.95691 -1.05246 13356 ft 301 kts 173°
2026-05-08 20:36 39.93636 -1.04703 12974 ft 300 kts 173°
2026-05-08 20:37 39.91593 -1.04160 12603 ft 299 kts 173°
2026-05-08 20:37 39.89562 -1.03621 12220 ft 297 kts 173°
2026-05-08 20:37 39.87540 -1.03086 11840 ft 296 kts 172°
2026-05-08 20:37 39.85528 -1.02554 11465 ft 295 kts 172°
2026-05-08 20:38 39.83548 -1.02031 11051 ft 295 kts 172°
2026-05-08 20:38 39.81519 -1.01493 10665 ft 293 kts 171°
2026-05-08 20:38 39.79554 -1.00970 10313 ft 291 kts 171°
2026-05-08 20:38 39.77575 -1.00446 9956 ft 290 kts 171°
2026-05-08 20:39 39.75603 -0.99925 9571 ft 288 kts 171°
2026-05-08 20:39 39.73641 -0.99405 9177 ft 286 kts 170°
2026-05-08 20:39 39.71750 -0.98522 8786 ft 287 kts 152°
2026-05-08 20:39 39.70292 -0.97033 8431 ft 288 kts 134°
2026-05-08 20:40 39.69179 -0.94872 8054 ft 288 kts 119°
2026-05-08 20:40 39.68262 -0.92578 7686 ft 285 kts 119°
2026-05-08 20:40 39.67348 -0.90314 7309 ft 282 kts 120°
2026-05-08 20:40 39.66438 -0.88078 6970 ft 279 kts 120°
2026-05-08 20:41 39.65535 -0.85865 6603 ft 276 kts 120°
2026-05-08 20:41 39.64641 -0.83676 6233 ft 272 kts 119°
2026-05-08 20:41 39.63759 -0.81517 5853 ft 269 kts 119°
2026-05-08 20:41 39.62883 -0.79379 5479 ft 267 kts 118°
2026-05-08 20:42 39.61850 -0.77419 5099 ft 263 kts 134°
2026-05-08 20:42 39.60499 -0.75843 4731 ft 260 kts 137°
2026-05-08 20:42 39.59591 -0.74798 4470 ft 258 kts 137°
2026-05-08 20:42 39.58399 -0.73102 4092 ft 253 kts 120°
2026-05-08 20:43 39.57638 -0.71095 4003 ft 247 kts 115°
2026-05-08 20:43 39.56888 -0.69097 3961 ft 246 kts 115°
2026-05-08 20:43 39.56130 -0.67120 3597 ft 244 kts 115°
2026-05-08 20:43 39.55395 -0.65200 3424 ft 234 kts 115°
2026-05-08 20:44 39.54682 -0.63319 3098 ft 231 kts 115°
2026-05-08 20:44 39.53984 -0.61475 2659 ft 226 kts 115°
2026-05-08 20:44 39.53303 -0.59677 2182 ft 219 kts 115°
2026-05-08 20:44 39.52665 -0.57997 1734 ft 201 kts 115°
2026-05-08 20:45 39.52067 -0.56420 1391 ft 184 kts 115°
2026-05-08 20:45 39.51522 -0.54984 1135 ft 172 kts 115°
2026-05-08 20:45 39.51016 -0.53652 922 ft 158 kts 115°
2026-05-08 20:45 39.50538 -0.52392 695 ft 151 kts 115°
2026-05-08 20:46 39.50092 -0.51221 501 ft 141 kts 115°
2026-05-08 20:46 39.49666 -0.50086 309 ft 139 kts 114°
2026-05-08 20:46 39.49277 -0.49057 211 ft 112 kts 115°
2026-05-08 20:46 39.49009 -0.48333 211 ft 62 kts 116°
2026-05-08 20:47 39.48975 -0.48154 210 ft 0 kts 88°
2026-05-08 20:47 39.48975 -0.48153 216 ft 0 kts 88°
2026-05-08 20:47 39.48975 -0.48152 215 ft 0 kts 88°
2026-05-08 20:47 39.48978 -0.48129 215 ft 5 kts 79°
2026-05-08 20:48 39.48983 -0.48098 212 ft 4 kts 77°
2026-05-08 20:48 39.48994 -0.48039 215 ft 10 kts 76°
2026-05-08 20:48 39.49014 -0.47928 210 ft 15 kts 76°
2026-05-08 20:48 39.49049 -0.47797 211 ft 16 kts 46°
2026-05-08 20:49 39.49137 -0.47733 213 ft 9 kts 28°
2026-05-08 20:49 39.49163 -0.47661 209 ft 10 kts 70°
2026-05-08 20:49 39.49174 -0.47627 215 ft 0 kts 67°
2026-05-08 20:55 39.49173 -0.47628 209 ft 0 kts 67°